DW2453 Weather Reports


time (UTC)temp
C
wind
direction
speed
KPH
gust
KPH
rain 1hr
cm
rain 24hr
cm
rain mn
cm
humidity
%
barometer
mb
20260906234342 36 290 0.0 0.0 0.00 0.00 0.00 20 1012.4
20260906233842 36 290 0.0 0.0 0.00 0.00 0.00 20 1012.4
20260906233342 36 290 0.0 0.0 0.00 0.00 0.00 20 1012.4
20260906232845 36 290 0.0 0.0 0.00 0.00 0.00 19 1012.3
20260906232342 36 290 0.0 0.0 0.00 0.00 0.00 19 1012.2
20260906231842 36 290 0.0 0.0 0.00 0.00 0.00 19 1012.3
20260906231342 36 290 0.0 0.0 0.00 0.00 0.00 19 1012.2
20260906230842 36 290 0.0 0.0 0.00 0.00 0.00 19 1012.1
20260906230342 36 290 0.0 0.0 0.00 0.00 0.00 18 1012.0
20260906225842 36 290 0.0 0.0 0.00 0.00 0.00 19 1011.9
20260906225342 36 290 0.0 0.0 0.00 0.00 0.00 19 1011.9
20260906224845 36 290 0.0 0.0 0.00 0.00 0.00 19 1011.9
20260906224345 36 290 0.0 0.0 0.00 0.00 0.00 19 1011.8
20260906223845 36 290 0.0 0.0 0.00 0.00 0.00 18 1011.8
20260906223342 36 290 0.0 0.0 0.00 0.00 0.00 18 1011.7
20260906222842 36 290 0.0 0.0 0.00 0.00 0.00 18 1011.8
20260906222342 36 290 0.0 0.0 0.00 0.00 0.00 18 1011.7
20260906221842 36 290 0.0 0.0 0.00 0.00 0.00 18 1011.8
20260906221342 36 290 0.0 0.0 0.00 0.00 0.00 18 1011.8
20260906220845 36 290 0.0 0.0 0.00 0.00 0.00 18 1011.8
20260906220342 36 290 0.0 0.0 0.00 0.00 0.00 18 1011.7
20260906215842 36 290 0.0 0.0 0.00 0.00 0.00 18 1011.7
20260906215342 36 290 0.0 0.0 0.00 0.00 0.00 18 1011.6
20260906214845 36 290 0.0 0.0 0.00 0.00 0.00 18 1011.7
20260906214343 36 290 0.0 0.0 0.00 0.00 0.00 18 1011.8
20260906213845 36 290 0.0 1.6 0.00 0.00 0.00 18 1012.0
20260906213342 36 290 0.0 1.6 0.00 0.00 0.00 18 1012.0
20260906212842 36 290 0.0 1.6 0.00 0.00 0.00 18 1012.1
20260906212342 36 290 0.0 4.8 0.00 0.00 0.00 18 1012.1
20260906211842 36 290 0.0 1.6 0.00 0.00 0.00 18 1012.1
20260906211342 35 290 0.0 1.6 0.00 0.00 0.00 18 1012.1
20260906210842 35 290 0.0 3.2 0.00 0.00 0.00 18 1012.1
20260906210342 35 290 0.0 3.2 0.00 0.00 0.00 19 1012.0
20260906205842 35 290 0.0 4.8 0.00 0.00 0.00 19 1011.9
20260906205342 35 290 0.0 3.2 0.00 0.00 0.00 19 1012.0
20260906204842 34 290 0.0 0.0 0.00 0.00 0.00 19 1012.2
20260906204345 34 290 0.0 0.0 0.00 0.00 0.00 19 1012.2
20260906203842 34 290 0.0 1.6 0.00 0.00 0.00 19 1012.2
20260906203342 34 290 0.0 0.0 0.00 0.00 0.00 19 1012.3
20260906202842 34 290 0.0 1.6 0.00 0.00 0.00 20 1012.4
20260906202342 34 290 1.6 1.6 0.00 0.00 0.00 19 1012.3
20260906201842 33 290 0.0 1.6 0.00 0.00 0.00 20 1012.4
20260906201342 33 290 0.0 0.0 0.00 0.00 0.00 20 1012.4
20260906200842 33 290 0.0 4.8 0.00 0.00 0.00 19 1012.6
20260906200342 33 290 0.0 1.6 0.00 0.00 0.00 19 1012.6
20260906195842 33 290 0.0 0.0 0.00 0.00 0.00 19 1012.5
20260906195345 33 290 0.0 0.0 0.00 0.00 0.00 19 1012.5
20260906194842 33 290 0.0 4.8 0.00 0.00 0.00 19 1012.5
20260906194342 33 290 0.0 0.0 0.00 0.00 0.00 20 1012.6
20260906193842 33 290 0.0 0.0 0.00 0.00 0.00 20 1012.6
20260906193342 33 290 0.0 0.0 0.00 0.00 0.00 20 1012.5
20260906192842 33 290 0.0 1.6 0.00 0.00 0.00 20 1012.5
20260906192342 33 290 0.0 0.0 0.00 0.00 0.00 21 1012.5
20260906191842 33 290 0.0 0.0 0.00 0.00 0.00 22 1012.6
20260906191342 33 290 0.0 1.6 0.00 0.00 0.00 22 1012.7
20260906190842 32 290 0.0 0.0 0.00 0.00 0.00 23 1012.7
20260906190342 32 290 0.0 0.0 0.00 0.00 0.00 22 1012.6
20260906185842 32 290 0.0 0.0 0.00 0.00 0.00 23 1012.6
20260906185343 32 290 0.0 0.0 0.00 0.00 0.00 24 1012.6
20260906184842 31 290 0.0 0.0 0.00 0.00 0.00 26 1012.6
20260906184345 31 290 0.0 0.0 0.00 0.00 0.00 26 1012.6
20260906183842 31 290 0.0 0.0 0.00 0.00 0.00 26 1012.6
20260906183342 31 290 0.0 0.0 0.00 0.00 0.00 26 1012.8
20260906182842 31 290 0.0 0.0 0.00 0.00 0.00 27 1012.9
20260906182342 31 290 0.0 0.0 0.00 0.00 0.00 28 1013.0
20260906181842 30 290 0.0 0.0 0.00 0.00 0.00 28 1013.0
20260906181342 30 290 0.0 0.0 0.00 0.00 0.00 28 1013.1
20260906180842 30 290 0.0 0.0 0.00 0.00 0.00 29 1013.2
20260906180342 30 290 0.0 0.0 0.00 0.00 0.00 28 1013.4
20260906175842 30 290 0.0 0.0 0.00 0.00 0.00 29 1013.3
20260906175342 30 290 0.0 0.0 0.00 0.00 0.00 28 1013.4
20260906174842 30 290 0.0 0.0 0.00 0.00 0.00 29 1013.4
20260906174342 29 290 0.0 0.0 0.00 0.00 0.00 30 1013.4
20260906173843 29 290 0.0 0.0 0.00 0.00 0.00 30 1013.5
20260906173342 29 290 0.0 0.0 0.00 0.00 0.00 30 1013.6
20260906172842 29 290 0.0 0.0 0.00 0.00 0.00 30 1013.6
20260906172342 28 290 0.0 0.0 0.00 0.00 0.00 31 1013.6
20260906171842 28 290 0.0 0.0 0.00 0.00 0.00 32 1013.6
20260906171345 28 290 0.0 0.0 0.00 0.00 0.00 32 1013.6
20260906170842 28 290 0.0 0.0 0.00 0.00 0.00 33 1013.6
20260906170343 28 290 0.0 0.0 0.00 0.00 0.00 33 1013.6
20260906165845 27 290 0.0 0.0 0.00 0.00 0.00 33 1013.6
20260906165342 27 290 0.0 0.0 0.00 0.00 0.00 35 1013.7
20260906164842 26 290 0.0 0.0 0.00 0.00 0.00 36 1013.8
20260906164342 26 290 0.0 0.0 0.00 0.00 0.00 37 1013.8
20260906163842 26 290 0.0 0.0 0.00 0.00 0.00 36 1013.8
20260906163342 25 290 0.0 0.0 0.00 0.00 0.00 37 1013.8
20260906162842 25 290 0.0 0.0 0.00 0.00 0.00 40 1013.7
20260906162342 25 290 0.0 0.0 0.00 0.00 0.00 40 1013.7
20260906161842 25 290 0.0 0.0 0.00 0.00 0.00 39 1013.6
20260906161342 25 290 0.0 0.0 0.00 0.00 0.00 40 1013.7
20260906160842 25 290 0.0 0.0 0.00 0.00 0.00 39 1013.7
20260906160342 24 290 0.0 0.0 0.00 0.00 0.00 41 1013.7
20260906155845 24 290 0.0 0.0 0.00 0.00 0.00 40 1013.7
20260906155342 24 290 0.0 0.0 0.00 0.00 0.00 40 1013.7
20260906154845 24 290 0.0 1.6 0.00 0.00 0.00 40 1013.8
20260906154342 23 290 0.0 0.0 0.00 0.00 0.00 42 1013.8
20260906153842 23 290 0.0 0.0 0.00 0.00 0.00 42 1013.8
20260906153342 23 290 0.0 0.0 0.00 0.00 0.00 42 1013.7
20260906152842 23 290 0.0 0.0 0.00 0.00 0.00 42 1013.7
20260906152343 23 290 0.0 0.0 0.00 0.00 0.00 42 1013.8
20260906151842 23 290 0.0 0.0 0.00 0.00 0.00 43 1013.7
20260906151342 23 290 0.0 0.0 0.00 0.00 0.00 42 1013.7
20260906150843 23 290 0.0 0.0 0.00 0.00 0.00 42 1013.8
20260906150342 23 290 0.0 0.0 0.00 0.00 0.00 43 1013.9
20260906145842 22 290 0.0 0.0 0.00 0.00 0.00 43 1013.9
20260906145342 22 290 0.0 0.0 0.00 0.00 0.00 43 1013.9
20260906144842 22 290 0.0 0.0 0.00 0.00 0.00 43 1013.8
20260906144346 22 290 0.0 0.0 0.00 0.00 0.00 43 1013.8
20260906143842 22 290 0.0 3.2 0.00 0.00 0.00 43 1013.8
20260906143342 21 290 0.0 3.2 0.00 0.00 0.00 45 1013.8
20260906142842 21 290 0.0 0.0 0.00 0.00 0.00 46 1013.8
20260906142342 21 290 0.0 0.0 0.00 0.00 0.00 46 1013.8
20260906141842 21 290 0.0 0.0 0.00 0.00 0.00 48 1013.8
20260906141345 20 290 0.0 0.0 0.00 0.00 0.00 48 1013.9
20260906140843 20 290 0.0 0.0 0.00 0.00 0.00 48 1013.9
20260906140342 20 290 0.0 0.0 0.00 0.00 0.00 49 1014.0
20260906135843 20 290 0.0 0.0 0.00 0.00 0.00 50 1013.9
20260906135342 20 290 0.0 0.0 0.00 0.00 0.00 48 1013.8
20260906134842 20 290 0.0 0.0 0.00 0.00 0.00 47 1013.8
20260906134346 20 290 0.0 0.0 0.00 0.00 0.00 47 1013.8
20260906133842 20 290 0.0 0.0 0.00 0.00 0.00 47 1013.9
20260906133346 20 290 0.0 0.0 0.00 0.00 0.00 47 1014.0
20260906132845 20 290 0.0 0.0 0.00 0.00 0.00 48 1014.0
20260906132343 19 290 0.0 0.0 0.00 0.00 0.00 47 1014.1
20260906131842 19 290 0.0 0.0 0.00 0.00 0.00 47 1014.1
20260906131342 19 290 0.0 0.0 0.00 0.00 0.00 46 1014.2
20260906130842 19 290 0.0 0.0 0.00 0.00 0.00 46 1014.2
20260906130342 20 290 0.0 0.0 0.00 0.00 0.00 46 1014.2
20260906125842 20 290 0.0 0.0 0.00 0.00 0.00 46 1014.2
20260906125342 20 290 0.0 0.0 0.00 0.00 0.00 45 1014.0
20260906124842 20 290 0.0 0.0 0.00 0.00 0.00 45 1014.1
20260906124345 20 290 0.0 0.0 0.00 0.00 0.00 46 1014.1
20260906123843 20 290 0.0 0.0 0.00 0.00 0.00 46 1014.1
20260906123342 20 290 0.0 0.0 0.00 0.00 0.00 46 1014.2
20260906122843 20 290 0.0 0.0 0.00 0.00 0.00 46 1014.1
20260906122342 20 290 0.0 0.0 0.00 0.00 0.00 46 1014.1
20260906121842 20 290 0.0 0.0 0.00 0.00 0.00 46 1014.2
20260906121342 20 290 0.0 0.0 0.00 0.00 0.00 47 1014.2
20260906120842 20 290 0.0 0.0 0.00 0.00 0.00 47 1014.2
20260906120342 20 290 0.0 0.0 0.00 0.00 0.00 46 1014.1
20260906115845 20 290 0.0 0.0 0.00 0.00 0.00 46 1014.3
20260906115342 20 290 0.0 0.0 0.00 0.00 0.00 47 1014.4
20260906114842 20 290 0.0 0.0 0.00 0.00 0.00 48 1014.5
20260906114342 20 290 0.0 0.0 0.00 0.00 0.00 47 1014.6
20260906113842 21 290 0.0 0.0 0.00 0.00 0.00 47 1014.5
20260906113342 21 290 0.0 0.0 0.00 0.00 0.00 47 1014.8
20260906112842 21 290 0.0 0.0 0.00 0.00 0.00 47 1014.8
20260906112345 21 290 0.0 0.0 0.00 0.00 0.00 46 1014.9
20260906111842 21 290 0.0 0.0 0.00 0.00 0.00 45 1014.7
20260906111342 21 290 0.0 0.0 0.00 0.00 0.00 45 1014.8
20260906110843 21 290 0.0 0.0 0.00 0.00 0.00 45 1014.8
20260906110346 21 290 0.0 0.0 0.00 0.00 0.00 45 1015.0
20260906105845 21 290 0.0 0.0 0.00 0.00 0.00 45 1015.2
20260906105342 21 290 0.0 0.0 0.00 0.00 0.00 45 1015.3
20260906104842 21 290 0.0 0.0 0.00 0.00 0.00 45 1015.5
20260906104342 22 290 0.0 0.0 0.00 0.00 0.00 45 1015.4
20260906103842 22 290 0.0 0.0 0.00 0.00 0.00 45 1015.4
20260906103342 22 290 0.0 0.0 0.00 0.00 0.00 45 1015.4
20260906102842 22 290 0.0 0.0 0.00 0.00 0.00 44 1015.5
20260906102342 22 290 0.0 0.0 0.00 0.00 0.00 43 1015.7
20260906101845 22 290 0.0 0.0 0.00 0.00 0.00 42 1015.8
20260906101342 21 290 0.0 0.0 0.00 0.00 0.00 43 1015.9
20260906100842 21 290 0.0 0.0 0.00 0.00 0.00 43 1015.8
20260906100342 22 290 0.0 0.0 0.00 0.00 0.00 43 1016.0
20260906095845 22 290 0.0 0.0 0.00 0.00 0.00 43 1016.0
20260906095343 22 290 0.0 0.0 0.00 0.00 0.00 43 1016.0
20260906094842 22 290 0.0 0.0 0.00 0.00 0.00 42 1016.0
20260906094342 22 290 0.0 0.0 0.00 0.00 0.00 41 1016.1
20260906093842 22 290 0.0 0.0 0.00 0.00 0.00 42 1016.1
20260906093342 22 290 0.0 0.0 0.00 0.00 0.00 41 1016.1
20260906092842 22 290 0.0 0.0 0.00 0.00 0.00 41 1016.2
20260906092345 22 290 0.0 0.0 0.00 0.00 0.00 41 1016.2
20260906091842 22 290 0.0 0.0 0.00 0.00 0.00 41 1016.2
20260906091342 22 290 0.0 0.0 0.00 0.00 0.00 40 1016.2
20260906090842 22 290 0.0 0.0 0.00 0.00 0.00 40 1016.2
20260906090342 22 290 0.0 0.0 0.00 0.00 0.00 40 1016.1
20260906085842 22 290 0.0 0.0 0.00 0.00 0.00 40 1016.1
20260906085342 22 290 0.0 0.0 0.00 0.00 0.00 40 1016.2
20260906084842 22 290 0.0 0.0 0.00 0.00 0.00 41 1016.4
20260906084342 22 290 0.0 0.0 0.00 0.00 0.00 41 1016.4
20260906083842 22 290 0.0 0.0 0.00 0.00 0.00 40 1016.6
20260906083342 22 290 0.0 0.0 0.00 0.00 0.00 40 1016.7
20260906082842 22 290 0.0 0.0 0.00 0.00 0.00 40 1016.8
20260906082345 22 290 0.0 0.0 0.00 0.00 0.00 40 1016.9
20260906081842 22 290 0.0 0.0 0.00 0.00 0.00 40 1016.9
20260906081342 22 290 0.0 0.0 0.00 0.00 0.00 40 1016.9
20260906080843 22 290 0.0 0.0 0.00 0.00 0.00 40 1017.0
20260906080345 22 290 0.0 0.0 0.00 0.00 0.00 40 1017.3
20260906075842 22 290 0.0 0.0 0.00 0.00 0.00 39 1017.3
20260906075342 22 290 0.0 0.0 0.00 0.00 0.00 39 1017.3
20260906074842 22 290 0.0 0.0 0.00 0.00 0.00 39 1017.5
20260906074342 22 290 0.0 0.0 0.00 0.00 0.00 39 1017.5
20260906073845 22 290 0.0 0.0 0.00 0.00 0.00 39 1017.6
20260906073342 22 290 0.0 0.0 0.00 0.00 0.00 39 1017.6
20260906072845 22 290 0.0 0.0 0.00 0.00 0.00 40 1017.7
20260906072342 22 290 0.0 0.0 0.00 0.00 0.00 41 1017.7
20260906071842 22 290 0.0 0.0 0.00 0.00 0.00 41 1017.8
20260906071342 22 290 0.0 0.0 0.00 0.00 0.00 42 1017.8
20260906070842 22 290 0.0 0.0 0.00 0.00 0.00 43 1017.7
20260906070342 22 290 0.0 0.0 0.00 0.00 0.00 44 1017.8
20260906065842 22 290 0.0 0.0 0.00 0.00 0.00 44 1017.9
20260906065342 22 290 0.0 0.0 0.00 0.00 0.00 44 1018.0
20260906064842 23 290 0.0 0.0 0.00 0.00 0.00 43 1018.0
20260906064342 23 290 0.0 0.0 0.00 0.00 0.00 42 1018.1
20260906063842 23 290 0.0 0.0 0.00 0.00 0.00 42 1018.0
20260906063342 23 290 0.0 0.0 0.00 0.00 0.00 41 1018.1
20260906062842 23 290 0.0 0.0 0.00 0.00 0.00 41 1018.0
20260906062342 23 290 0.0 0.0 0.00 0.00 0.00 40 1018.1
20260906061842 23 290 0.0 0.0 0.00 0.00 0.00 40 1018.1
20260906061342 23 290 0.0 0.0 0.00 0.00 0.00 40 1018.0
20260906060842 23 290 0.0 0.0 0.00 0.00 0.00 39 1018.1
20260906060345 23 290 0.0 0.0 0.00 0.00 0.00 39 1017.9
20260906055842 23 290 0.0 0.0 0.00 0.00 0.00 39 1017.9
20260906055342 23 290 0.0 0.0 0.00 0.00 0.00 39 1017.9
20260906054842 23 290 0.0 0.0 0.00 0.00 0.00 39 1017.9
20260906054342 23 290 0.0 0.0 0.00 0.00 0.00 39 1017.9
20260906053845 23 290 0.0 0.0 0.00 0.00 0.00 39 1017.9
20260906053342 23 290 0.0 0.0 0.00 0.00 0.00 38 1017.9
20260906052842 23 290 0.0 0.0 0.00 0.00 0.00 39 1017.9
20260906052342 23 290 0.0 0.0 0.00 0.00 0.00 38 1017.9
20260906051842 24 290 0.0 0.0 0.00 0.00 0.00 38 1017.8
20260906051342 24 290 0.0 0.0 0.00 0.00 0.00 37 1017.9
20260906050842 24 290 0.0 0.0 0.00 0.00 0.00 37 1017.8
20260906050342 24 290 0.0 0.0 0.00 0.00 0.00 37 1017.8
20260906045845 25 290 0.0 0.0 0.00 0.00 0.00 37 1017.8
20260906045345 25 290 0.0 0.0 0.00 0.00 0.00 36 1017.7
20260906044845 25 290 0.0 0.0 0.00 0.00 0.00 36 1017.8
20260906044342 25 290 0.0 0.0 0.00 0.00 0.00 36 1017.7
20260906043842 25 290 0.0 0.0 0.00 0.00 0.00 36 1017.9
20260906043342 25 290 0.0 0.0 0.00 0.00 0.00 36 1017.8
20260906042845 25 290 0.0 0.0 0.00 0.00 0.00 36 1017.8
20260906042342 25 290 0.0 0.0 0.00 0.00 0.00 37 1017.8
20260906041842 25 290 0.0 0.0 0.00 0.00 0.00 37 1017.8
20260906041342 25 290 0.0 0.0 0.00 0.00 0.00 36 1017.9
20260906040842 25 290 0.0 0.0 0.00 0.00 0.00 36 1017.9
20260906040342 25 290 0.0 0.0 0.00 0.00 0.00 36 1017.9
20260906035842 25 290 0.0 0.0 0.00 0.00 0.00 35 1018.0
20260906035342 25 290 0.0 0.0 0.00 0.00 0.00 36 1017.9
20260906034842 25 290 0.0 0.0 0.00 0.00 0.00 36 1017.8
20260906034342 25 290 0.0 0.0 0.00 0.00 0.00 36 1017.8
20260906033842 25 290 0.0 0.0 0.00 0.00 0.00 36 1017.8
20260906033345 25 290 0.0 0.0 0.00 0.00 0.00 36 1017.7
20260906032842 25 290 0.0 0.0 0.00 0.00 0.00 36 1017.7
20260906032342 26 290 0.0 0.0 0.00 0.00 0.00 36 1017.6
20260906031842 26 290 0.0 0.0 0.00 0.00 0.00 36 1017.5
20260906031342 26 290 0.0 0.0 0.00 0.00 0.00 36 1017.4
20260906030842 26 290 0.0 0.0 0.00 0.00 0.00 36 1017.2
20260906030342 26 290 0.0 0.0 0.00 0.00 0.00 36 1017.2
20260906025842 26 290 0.0 0.0 0.00 0.00 0.00 36 1017.1
20260906025345 26 290 0.0 0.0 0.00 0.00 0.00 36 1017.0
20260906024842 27 290 0.0 0.0 0.00 0.00 0.00 36 1016.7
20260906024342 27 290 0.0 0.0 0.00 0.00 0.00 36 1016.7
20260906023845 27 290 0.0 0.0 0.00 0.00 0.00 35 1016.7
20260906023342 27 290 0.0 0.0 0.00 0.00 0.00 34 1016.6
20260906022842 27 290 0.0 0.0 0.00 0.00 0.00 33 1016.5
20260906022342 28 290 0.0 0.0 0.00 0.00 0.00 33 1016.4
20260906021842 28 290 0.0 0.0 0.00 0.00 0.00 33 1016.3
20260906021342 28 290 0.0 0.0 0.00 0.00 0.00 33 1016.3
20260906020842 28 290 0.0 0.0 0.00 0.00 0.00 32 1016.1
20260906020342 28 290 0.0 0.0 0.00 0.00 0.00 32 1016.0
20260906015845 29 290 0.0 0.0 0.00 0.00 0.00 31 1015.9
20260906015342 29 290 0.0 0.0 0.00 0.00 0.00 31 1015.8
20260906014842 30 290 0.0 0.0 0.00 0.00 0.00 31 1015.9
20260906014342 30 290 0.0 1.6 0.00 0.00 0.00 30 1015.8
20260906013842 30 290 0.0 0.0 0.00 0.00 0.00 30 1015.7
20260906013342 30 290 0.0 0.0 0.00 0.00 0.00 30 1015.6
20260906012842 30 290 0.0 0.0 0.00 0.00 0.00 29 1015.6
20260906012342 31 290 0.0 0.0 0.00 0.00 0.00 29 1015.4
20260906011842 31 290 0.0 0.0 0.00 0.00 0.00 29 1015.5
20260906011342 31 290 0.0 1.6 0.00 0.00 0.00 28 1015.4
20260906010842 32 290 0.0 3.2 0.00 0.00 0.00 27 1015.4
20260906010342 32 290 0.0 0.0 0.00 0.00 0.00 27 1015.4
20260906005842 32 290 0.0 0.0 0.00 0.00 0.00 27 1015.3
20260906005342 32 290 0.0 0.0 0.00 0.00 0.00 27 1015.3
20260906004842 32 290 0.0 0.0 0.00 0.00 0.00 27 1015.2
20260906004342 32 290 0.0 0.0 0.00 0.00 0.00 26 1015.3
20260906003842 33 290 0.0 0.0 0.00 0.00 0.00 26 1015.2
20260906003342 33 290 0.0 0.0 0.00 0.00 0.00 26 1015.1
20260906002842 33 290 0.0 4.8 0.00 0.00 0.00 25 1015.1
20260906002342 33 290 0.0 0.0 0.00 0.00 0.00 26 1015.0
20260906001842 33 290 0.0 0.0 0.00 0.00 0.00 25 1014.8
20260906001342 33 290 0.0 1.6 0.00 0.00 0.00 25 1014.8
20260906000842 33 290 0.0 0.0 0.00 0.00 0.00 26 1014.9
20260906000345 33 290 0.0 0.0 0.00 0.00 0.00 26 1014.8
20260905235842 33 290 0.0 0.0 0.00 0.00 0.00 26 1014.5
20260905235345 33 290 0.0 0.0 0.00 0.00 0.00 26 1014.4
20260905234842 33 290 0.0 8.0 0.00 0.00 0.00 26 1014.2